Flag for Germany Weather past 2 weeks in Langen, Hesse, Germany

Now
57 °F

Light rain. Broken clouds.


Feels Like: 56 °F
Forecast: 51 / 67 °F
Wind: 7 mph from Southwest

Location: Frankfurt-M-Flughafen Airport

Current Time: Apr 25, 2015 at 1:12:48 PM

Latest Report: Apr 25, 2015 at 12:20 PM


Visibility: N/A

Pressure: 29.83 "Hg

Humidity: 72%

Dew point: 48 °F

Location of LangenLocation

Historic Weather in Langen — Graph

°F

Langen temperature yesterday

Maximum temperature yesterday: 70 °F (at 4:20 PM)
Minimum temperature yesterday: 36 °F (at 5:50 AM)
Average temperature yesterday: 55 °F

Past Weeks' High & Low Weather Summary

 TemperatureHumidityPressure
High77 °F (Apr 15, 3:50 PM)100% (Apr 23, 5:50 AM)30.45 "Hg (Apr 23, 5:50 AM)
Low34 °F (Apr 23, 5:50 AM)20% (Apr 19, 5:20 PM)29.83 "Hg (Apr 16, 7:20 PM)
Average55 °F54%30.17 "Hg
* Reported Apr 10 11:20 AM — Apr 25 11:50 AM, Langen, Weather by CustomWeather, © 2015

Note: Actual official high and low records may vary slightly from our data, if they occured in-between our weather recording intervals... More about our weather records

Advertising

Langen weather history for previous 24 hours

 ConditionsComfort  
Time TempWeatherWind HumidityBarometerVisibility
11:50 AM
Sat, Apr 25
54 °FLight rain. Partly sunny.7 mph82%29.86 "HgN/A
11:20 AM54 °FLight rain. Partly sunny.7 mph77%29.86 "HgN/A
10:50 AM54 °FLight rain. Partly sunny.8 mph72%29.86 "HgN/A
10:20 AM54 °FLight rain. Partly sunny.8 mph72%29.86 "HgN/A
9:50 AM54 °FSunny.8 mph67%29.86 "Hg10 mi
9:20 AM52 °FSunny.6 mph72%29.83 "Hg10 mi
8:50 AM50 °FPassing clouds.3 mph71%29.83 "HgN/A
8:20 AM50 °FSunny.2 mph71%29.83 "Hg10 mi
7:50 AM48 °FSunny.2 mph82%29.83 "Hg10 mi
7:20 AM46 °FSunny.2 mph87%29.83 "Hg10 mi
6:50 AM45 °FClear.1 mph87%29.83 "Hg10 mi
6:20 AM45 °FClear.1 mph87%29.83 "Hg10 mi
5:20 AM43 °FClear.No wind87%29.83 "Hg10 mi
4:50 AM43 °FClear.No wind87%29.83 "Hg10 mi
4:20 AM43 °FClear.No wind87%29.83 "Hg10 mi
3:50 AM43 °FClear.No wind87%29.83 "Hg10 mi
3:20 AM43 °FClear.1 mph93%29.83 "Hg10 mi
2:50 AM45 °FClear.2 mph81%29.83 "Hg10 mi
2:20 AM45 °FClear.3 mph81%29.86 "Hg10 mi
1:50 AM45 °FClear.2 mph81%29.86 "Hg10 mi
1:20 AM46 °FClear.5 mph76%29.86 "Hg10 mi
12:50 AM46 °FClear.1 mph76%29.86 "Hg10 mi
12:20 AM48 °FClear.2 mph71%29.86 "Hg10 mi
11:20 PM
Fri, Apr 24
50 °FClear.2 mph71%29.86 "Hg10 mi
10:50 PM52 °FClear.1 mph67%29.86 "Hg10 mi
10:20 PM54 °FClear.1 mph63%29.86 "Hg10 mi
9:50 PM55 °FClear.5 mph59%29.86 "Hg10 mi
9:20 PM59 °FSunny.3 mph48%29.86 "Hg10 mi
8:50 PM63 °FSunny.5 mph42%29.86 "Hg10 mi
8:20 PM64 °FSunny.7 mph37%29.86 "Hg10 mi
7:50 PM66 °FSunny.7 mph35%29.86 "Hg10 mi
7:20 PM68 °FPassing clouds.7 mph30%29.86 "HgN/A
6:50 PM70 °FPassing clouds.8 mph29%29.86 "HgN/A
6:20 PM70 °FPassing clouds.7 mph29%29.86 "HgN/A
5:50 PM70 °FPassing clouds.7 mph29%29.89 "HgN/A
5:20 PM70 °FPassing clouds.10 mph27%29.89 "HgN/A
4:50 PM70 °FPassing clouds.7 mph27%29.89 "HgN/A
4:20 PM70 °FPassing clouds.8 mph29%29.89 "HgN/A
3:50 PM68 °FPassing clouds.7 mph28%29.92 "HgN/A
3:20 PM68 °FSunny.7 mph26%29.92 "Hg10 mi
2:50 PM66 °FPassing clouds.7 mph28%29.92 "HgN/A
2:20 PM66 °FSunny.7 mph28%29.95 "Hg10 mi
1:50 PM66 °FSunny.6 mph28%29.95 "Hg10 mi
1:20 PM64 °FPassing clouds.7 mph30%29.95 "HgN/A
Weather by CustomWeather, © 2015

See weather overviewHow to use our weather pages